Terminal Aerodrome Forecast
Issued by NWS Wichita, KS

Home | Current Version | Previous Version | Graphics & Text | Print | Product List | Glossary On
Versions: 1 2 3 4 5 6 7 8 9 10 11 12 13 14 15
000
FTUS43 KICT 272107 AAB
TAFICT
TAF AMD
KICT 272107Z 2721/2818 17017G22KT P6SM SCT150 BKN300
     FM272300 17009KT P6SM SCT150 BKN300=

USA.gov is the U.S. government's official web portal to all federal, state and local government web resources and services.